This is the latest recevied weather packets stored in our database for station/object DC4THF-13. If no packets are shown the sender has not sent any weather packets the latest 10 day(s).
| Time | Temp. | Humidity | Pressure | Rain* | Wind** | Luminosity | Snow |
|---|---|---|---|---|---|---|---|
| 1777468987 | 16.67° C | 15% | 1024 hPa | 0 mm | - | - | - |
| 1777468383 | 16.11° C | 15% | 1024 hPa | 0 mm | - | - | - |
| 1777467780 | 16.67° C | 15% | 1023.9 hPa | 0 mm | - | - | - |
| 1777467176 | 16.67° C | 15% | 1024 hPa | 0 mm | - | - | - |
| 1777466572 | 16.67° C | 15% | 1024.1 hPa | 0 mm | - | - | - |
| 1777465969 | 16.67° C | 15% | 1024 hPa | 0 mm | - | - | - |
| 1777465365 | 16.67° C | 15% | 1024.1 hPa | 0 mm | - | - | - |
| 1777464761 | 16.11° C | 15% | 1023.9 hPa | 0 mm | - | - | - |
| 1777464158 | 16.11° C | 15% | 1024.1 hPa | 0 mm | - | - | - |
| 1777463553 | 16.11° C | 15% | 1024.2 hPa | 0 mm | - | - | - |
| 1777462949 | 15.56° C | 15% | 1024.2 hPa | 0 mm | - | - | - |
| 1777462346 | 15.56° C | 15% | 1024.4 hPa | 0 mm | - | - | - |
| 1777461742 | 15.56° C | 15% | 1024.5 hPa | 0 mm | - | - | - |
| 1777461139 | 15° C | 15% | 1024.5 hPa | 0 mm | - | - | - |
| 1777460595 | 15.56° C | 18% | 1024.6 hPa | 0 mm | - | - | - |
| 1777459991 | 15° C | 18% | 1024.6 hPa | 0 mm | - | - | - |
| 1777459387 | 15° C | 15% | 1024.6 hPa | 0 mm | - | - | - |
| 1777458783 | 15° C | 16% | 1024.7 hPa | 0 mm | - | - | - |
| 1777458180 | 15° C | 15% | 1024.9 hPa | 0 mm | - | - | - |
| 1777457577 | 14.44° C | 15% | 1025 hPa | 0 mm | - | - | - |
| 1777456974 | 14.44° C | 18% | 1025 hPa | 0 mm | - | - | - |
| 1777456371 | 14.44° C | 19% | 1025 hPa | 0 mm | - | - | - |
| 1777455768 | 15° C | 18% | 1025 hPa | 0 mm | - | - | - |
| 1777455164 | 14.44° C | 20% | 1024.9 hPa | 0 mm | - | - | - |
| 1777454559 | 14.44° C | 20% | 1025.2 hPa | 0 mm | - | - | - |
* Rain latest hour (hover to see other rain measurements)
** Current wind speed in m/s (hover to see current wind gust speed)